D3121 Weather Reports


Display with metric or nautical units.
time (UTC)temp
F
wind
direction
speed
MPH
gust
MPH
rain 1hr
in
rain 24hr
in
rain mn
in
humidity
%
barometer
mb
20260507171137 52 338 6.0 10.0 0.00 0.40 0.01 46 1005.9
20260507170137 52 338 4.0 7.0 0.00 0.41 0.01 49 1006.2
20260507165137 52 0 3.0 5.0 0.00 0.42 0.01 50 1006.4
20260507164138 52 293 3.0 5.0 0.00 0.43 0.01 48 1006.4
20260507163117 51 338 8.0 16.0 0.00 0.44 0.01 49 1006.4
20260507162117 52 0 8.0 19.0 0.00 0.44 0.01 47 1006.6
20260507161117 52 270 4.0 8.0 0.00 0.44 0.01 51 1006.5
20260507160117 51 0 3.0 6.0 0.00 0.44 0.01 54 1006.7
20260507155117 51 338 4.0 9.0 0.00 0.44 0.01 52 1006.7
20260507154117 51 338 10.0 17.0 0.00 0.44 0.01 52 1007.0
20260507153117 51 315 5.0 11.0 0.00 0.44 0.01 55 1007.0
20260507152117 51 270 5.0 7.0 0.00 0.44 0.01 55 1007.0
20260507151117 51 23 3.0 4.0 0.00 0.44 0.01 58 1007.0
20260507150157 50 293 4.0 8.0 0.00 0.44 0.01 59 1007.1
20260507145117 51 338 5.0 15.0 0.00 0.44 0.01 59 1007.1
20260507144117 50 0 4.0 6.0 0.00 0.44 0.01 63 1007.0
20260507143117 50 338 5.0 7.0 0.00 0.44 0.01 67 1007.0
20260507142117 49 180 3.0 6.0 0.00 0.44 0.01 69 1006.9
20260507141117 48 338 5.0 7.0 0.00 0.44 0.01 74 1006.9
20260507140117 48 293 3.0 7.0 0.00 0.44 0.01 76 1007.0
20260507135117 48 0 4.0 7.0 0.00 0.44 0.01 77 1006.9
20260507134117 47 23 2.0 5.0 0.00 0.44 0.01 82 1006.9
20260507133117 47 23 2.0 3.0 0.00 0.44 0.01 85 1007.0
20260507132137 47 0.0 3.0 0.00 0.44 0.01 86 1007.0
20260507131117 47 338 2.0 3.0 0.00 0.44 0.01 88 1007.0
20260507130117 46 0 2.0 4.0 0.00 0.44 0.01 90 1007.1
20260507125117 46 203 1.0 1.0 0.00 0.44 0.01 91 1007.1
20260507124137 45 0.0 0.0 0.00 0.44 0.01 89 1007.1
20260507123117 45 0.0 0.0 0.00 0.44 0.01 89 1007.0
20260507122117 45 135 2.0 4.0 0.00 0.44 0.01 89 1007.0
20260507121117 46 135 2.0 4.0 0.00 0.44 0.01 88 1006.9
20260507120117 47 113 1.0 4.0 0.00 0.44 0.01 89 1007.0
20260507115117 46 0.0 0.0 0.00 0.44 0.01 90 1007.0
20260507114117 46 315 1.0 1.0 0.00 0.44 0.01 91 1007.0
20260507113117 46 0.0 0.0 0.00 0.44 0.01 92 1007.2
20260507112117 45 0.0 1.0 0.00 0.44 0.01 94 1007.0
20260507111117 44 135 4.0 5.0 0.00 0.44 0.01 95 1007.0
20260507110117 43 0.0 0.0 0.00 0.44 0.01 95 1006.9
20260507105137 43 0 2.0 2.0 0.00 0.44 0.01 95 1006.8
20260507104117 43 0 2.0 3.0 0.00 0.44 0.01 96 1006.8
20260507103117 43 0.0 0.0 0.00 0.44 0.01 96 1006.8
20260507102137 42 0.0 0.0 0.00 0.44 0.01 96 1006.7
20260507101117 41 0.0 0.0 0.00 0.44 0.01 96 1006.6
20260507100157 41 0.0 0.0 0.00 0.44 0.01 96 1006.8
20260507095117 42 0.0 0.0 0.00 0.44 0.01 96 1006.7
20260507094117 42 0.0 0.0 0.00 0.44 0.01 96 1006.9
20260507093137 42 0.0 1.0 0.00 0.44 0.01 96 1006.8
20260507092116 42 0.0 1.0 0.00 0.44 0.01 96 1006.9
20260507091117 42 0.0 0.0 0.00 0.44 0.01 96 1007.1
20260507090117 42 0.0 0.0 0.00 0.44 0.01 95 1007.0
20260507085116 42 0.0 0.0 0.00 0.44 0.01 95 1006.6
20260507084117 42 0.0 0.0 0.00 0.44 0.01 96 1006.7
20260507083116 42 0.0 0.0 0.00 0.44 0.01 95 1006.7
20260507082117 42 0.0 0.0 0.00 0.44 0.01 95 1006.5
20260507081117 42 0.0 0.0 0.00 0.44 0.01 95 1006.6
20260507080117 42 0.0 0.0 0.00 0.44 0.01 95 1006.4
20260507075117 42 0.0 1.0 0.00 0.44 0.01 95 1006.5
20260507074137 43 0.0 0.0 0.00 0.44 0.01 95 1006.4
20260507073117 43 0.0 1.0 0.00 0.44 0.01 95 1006.4
20260507072117 43 0.0 0.0 0.00 0.44 0.01 95 1006.3
20260507071137 43 270 1.0 2.0 0.00 0.44 0.01 95 1005.9
20260507070116 43 0.0 0.0 0.00 0.44 0.01 95 1005.9
20260507065117 43 0.0 0.0 0.00 0.44 0.01 95 1005.6
20260507064117 43 293 1.0 2.0 0.00 0.44 0.01 95 1005.7
20260507063117 43 0.0 0.0 0.00 0.44 0.01 95 1006.2
20260507062117 44 0.0 0.0 0.00 0.44 0.01 95 1006.1
20260507061117 44 0.0 0.0 0.00 0.44 0.01 95 1006.3
20260507060137 44 0.0 0.0 0.00 0.44 0.01 95 1006.3
20260507055117 44 0.0 0.0 0.00 0.44 0.01 95 1006.0
20260507054117 44 338 1.0 2.0 0.00 0.44 0.01 96 1006.6
20260507053117 44 0.0 0.0 0.00 0.44 0.01 95 1006.8
20260507052117 44 0.0 0.0 0.00 0.44 0.01 95 1006.2
20260507051137 45 0.0 2.0 0.01 0.44 0.01 95 1006.6
20260507050117 45 0.0 0.0 0.01 0.44 0.01 95 1006.4
20260507045116 45 0.0 0.0 0.01 0.44 0.01 95 1006.3
20260507044117 45 293 1.0 1.0 0.01 0.44 0.01 95 1006.2
20260507043117 45 0.0 0.0 0.01 0.44 0.01 95 1006.2
20260507042117 45 0.0 1.0 0.01 0.44 0.01 95 1006.4
20260507041117 45 0.0 1.0 0.00 0.43 0.00 95 1006.3
20260507040117 45 0.0 0.0 0.00 0.43 0.00 95 1006.2
20260507035116 46 0.0 0.0 0.01 0.43 0.43 94 1006.2
20260507034115 46 0.0 1.0 0.01 0.43 0.43 94 1006.3
20260507033116 46 293 1.0 1.0 0.01 0.43 0.43 94 1006.3
20260507032116 46 270 1.0 2.0 0.01 0.43 0.43 94 1006.2
20260507031116 46 225 1.0 2.0 0.02 0.43 0.43 94 1006.2
20260507030115 47 315 1.0 2.0 0.02 0.43 0.43 94 1006.3
20260507025136 47 315 1.0 1.0 0.01 0.42 0.42 95 1006.4
20260507024116 47 0.0 2.0 0.02 0.42 0.42 94 1006.2
20260507023116 48 315 1.0 2.0 0.02 0.42 0.42 94 1006.2
20260507022136 48 338 1.0 3.0 0.03 0.42 0.42 94 1006.4
20260507021115 48 0.0 1.0 0.03 0.41 0.41 94 1006.4
20260507020116 49 270 1.0 2.0 0.04 0.41 0.41 95 1006.2
20260507015115 49 0.0 0.0 0.04 0.41 0.41 95 1006.3
20260507014115 49 293 1.0 2.0 0.03 0.40 0.40 94 1006.0
20260507013115 49 0.0 0.0 0.04 0.40 0.40 94 1005.9
20260507012115 50 270 2.0 3.0 0.04 0.39 0.39 94 1005.8
20260507011118 50 338 1.0 2.0 0.03 0.38 0.38 94 1005.7
20260507010116 51 338 3.0 7.0 0.02 0.37 0.37 94 1005.4
20260507005118 52 338 5.0 6.0 0.02 0.37 0.37 95 1005.1
20260507004115 52 225 1.0 4.0 0.03 0.37 0.37 95 1005.2
20260507003117 52 293 1.0 4.0 0.03 0.36 0.36 95 1004.8
20260507002116 52 270 1.0 3.0 0.09 0.35 0.35 95 1004.5
20260507001117 53 338 3.0 6.0 0.10 0.35 0.35 94 1004.3
20260507000159 53 315 3.0 5.0 0.10 0.35 0.35 94 1004.0
20260506235117 54 338 7.0 12.0 0.10 0.35 0.35 93 1003.9
20260506234117 56 338 5.0 9.0 0.10 0.34 0.34 94 1003.8
20260506233117 58 293 3.0 7.0 0.10 0.33 0.33 96 1003.6
20260506232138 58 0.0 1.0 0.03 0.26 0.26 96 1003.3
20260506231117 58 0.0 0.0 0.02 0.26 0.25 95 1003.2
20260506230118 58 0.0 1.0 0.03 0.26 0.25 95 1003.2
20260506225117 58 0.0 0.0 0.03 0.26 0.25 95 1003.5
20260506224118 58 0.0 1.0 0.02 0.25 0.24 95 1003.4
20260506223116 58 293 1.0 1.0 0.01 0.24 0.23 95 1003.4
20260506222138 58 0.0 1.0 0.01 0.24 0.23 94 1003.2
20260506221156 58 0.0 1.0 0.01 0.24 0.23 94 1003.3
20260506220158 58 0.0 2.0 0.00 0.23 0.22 94 1003.2
20260506215116 59 180 1.0 2.0 0.00 0.23 0.22 94 1003.2
20260506214138 59 248 3.0 4.0 0.01 0.24 0.22 95 1003.2
20260506213117 58 315 1.0 2.0 0.01 0.24 0.22 95 1003.2
20260506212136 58 0.0 2.0 0.01 0.24 0.22 95 1003.3
20260506211117 58 0.0 0.0 0.02 0.24 0.22 95 1003.4
20260506210117 58 315 1.0 3.0 0.02 0.24 0.22 95 1003.5
20260506205117 58 0.0 1.0 0.02 0.24 0.22 96 1003.6
20260506204118 58 0 1.0 3.0 0.01 0.23 0.21 96 1003.5
20260506203118 58 225 1.0 2.0 0.01 0.23 0.21 96 1003.6
20260506202117 57 0.0 1.0 0.01 0.23 0.21 96 1003.5
20260506201118 57 0.0 0.0 0.00 0.22 0.20 96 1003.6
20260506200118 56 0.0 0.0 0.03 0.22 0.20 95 1003.7
20260506195117 56 0.0 0.0 0.05 0.22 0.20 94 1003.7
20260506194117 56 0.0 0.0 0.06 0.22 0.20 94 1003.9
20260506193117 57 0.0 1.0 0.07 0.22 0.20 93 1004.1
20260506192117 58 0.0 0.0 0.07 0.22 0.20 95 1004.2
20260506191117 58 90 1.0 2.0 0.08 0.22 0.20 95 1004.3
20260506190118 57 0.0 0.0 0.05 0.19 0.17 94 1004.4
20260506185117 58 0.0 0.0 0.04 0.17 0.15 94 1004.6
20260506184117 58 0.0 0.0 0.05 0.16 0.14 94 1004.7
20260506183117 58 0.0 0.0 0.06 0.15 0.13 94 1004.8
20260506182116 58 0.0 0.0 0.07 0.15 0.13 94 1004.8
20260506181117 58 0.0 0.0 0.08 0.14 0.12 94 1005.2
20260506180117 59 0.0 0.0 0.09 0.14 0.12 94 1005.5
20260506175117 59 0.0 0.0 0.09 0.13 0.11 94 1005.7
20260506174117 59 23 1.0 3.0 0.08 0.11 0.09 93 1005.8
20260506173117 59 0.0 1.0 0.07 0.09 0.07 93 1005.8
20260506172117 59 0.0 1.0 0.06 0.08 0.06 93 1005.8